| time (UTC) | temp F | wind direction | speed MPH | gust MPH | rain 1hr in | rain 24hr in | rain mn in | humidity % | barometer mb |
| 20260904123024 | 75 | 212 | 0.0 | 1.0 | 0.00 | 0.00 | 0.00 | 98 | 4252.8 |
| 20260904122019 | 75 | 220 | 1.0 | 1.0 | 0.00 | 0.00 | 0.00 | 98 | 4252.8 |
| 20260904121016 | 74 | 207 | 1.0 | 1.0 | 0.00 | 0.00 | 0.00 | 99 | 4252.6 |
| 20260904120014 | 74 | 219 | 1.0 | 1.0 | 0.00 | 0.00 | 0.00 | 99 | 4252.5 |
| 20260904115008 | 73 | 201 | 1.0 | 1.0 | 0.00 | 0.00 | 0.00 | 99 | 4252.3 |
| 20260904114004 | 73 | 220 | 2.0 | 2.0 | 0.00 | 0.00 | 0.00 | 99 | 4252.1 |
| 20260904113003 | 73 | 223 | 1.0 | 2.0 | 0.00 | 0.00 | 0.00 | 99 | 4252.1 |
| 20260904112000 | 73 | 216 | 1.0 | 1.0 | 0.00 | 0.00 | 0.00 | 99 | 4252.0 |
| 20260904110957 | 74 | 236 | 1.0 | 1.0 | 0.00 | 0.00 | 0.00 | 99 | 4252.0 |
| 20260904105952 | 73 | 222 | 0.0 | 1.0 | 0.00 | 0.00 | 0.00 | 99 | 4252.0 |
| 20260904104947 | 73 | 209 | 0.0 | 1.0 | 0.00 | 0.00 | 0.00 | 99 | 4251.9 |
| 20260904103944 | 74 | 220 | 1.0 | 1.0 | 0.00 | 0.00 | 0.00 | 99 | 4251.9 |
| 20260904102941 | 74 | 214 | 1.0 | 1.0 | 0.00 | 0.00 | 0.00 | 99 | 4251.8 |
| 20260904101938 | 74 | 214 | 1.0 | 1.0 | 0.00 | 0.00 | 0.00 | 99 | 4251.8 |
| 20260904100936 | 74 | 209 | 1.0 | 1.0 | 0.00 | 0.00 | 0.00 | 99 | 4251.7 |
| 20260904095932 | 74 | 224 | 1.0 | 1.0 | 0.00 | 0.00 | 0.00 | 99 | 4251.5 |
| 20260904094927 | 74 | 223 | 1.0 | 1.0 | 0.00 | 0.00 | 0.00 | 99 | 4251.6 |
| 20260904093924 | 74 | 215 | 1.0 | 1.0 | 0.00 | 0.00 | 0.00 | 99 | 4251.4 |
| 20260904092920 | 74 | 220 | 0.0 | 1.0 | 0.00 | 0.00 | 0.00 | 99 | 4251.4 |
| 20260904091919 | 74 | 211 | 1.0 | 1.0 | 0.00 | 0.00 | 0.00 | 99 | 4251.2 |
| 20260904090914 | 75 | 216 | 1.0 | 1.0 | 0.00 | 0.00 | 0.00 | 99 | 4251.3 |
| 20260904085911 | 75 | 212 | 1.0 | 1.0 | 0.00 | 0.00 | 0.00 | 99 | 4251.3 |
| 20260904084907 | 75 | 226 | 0.0 | 1.0 | 0.00 | 0.00 | 0.00 | 99 | 4251.4 |
| 20260904083904 | 75 | 211 | 1.0 | 1.0 | 0.00 | 0.00 | 0.00 | 99 | 4251.4 |
| 20260904082902 | 75 | 213 | 1.0 | 1.0 | 0.00 | 0.00 | 0.00 | 99 | 4251.3 |
| 20260904081857 | 76 | 222 | 1.0 | 1.0 | 0.00 | 0.00 | 0.00 | 99 | 4251.2 |
| 20260904080854 | 76 | 212 | 0.0 | 0.0 | 0.00 | 0.00 | 0.00 | 99 | 4251.0 |
| 20260904075851 | 76 | 220 | 2.0 | 2.0 | 0.00 | 0.00 | 0.00 | 99 | 4251.1 |
| 20260904074850 | 76 | 216 | 1.0 | 1.0 | 0.00 | 0.00 | 0.00 | 99 | 4251.0 |
| 20260904073847 | 76 | 213 | 1.0 | 1.0 | 0.00 | 0.00 | 0.00 | 99 | 4251.1 |
| 20260904072844 | 76 | 215 | 1.0 | 1.0 | 0.00 | 0.00 | 0.00 | 98 | 4250.8 |
| 20260904071840 | 76 | 216 | 0.0 | 1.0 | 0.00 | 0.00 | 0.00 | 98 | 4251.1 |
| 20260904070835 | 76 | 217 | 1.0 | 1.0 | 0.00 | 0.00 | 0.00 | 98 | 4251.0 |
| 20260904065835 | 77 | 218 | 1.0 | 1.0 | 0.00 | 0.00 | 0.00 | 97 | 4251.0 |
| 20260904064832 | 77 | 215 | 1.0 | 1.0 | 0.00 | 0.00 | 0.00 | 97 | 4251.2 |
| 20260904063829 | 77 | 213 | 1.0 | 1.0 | 0.00 | 0.00 | 0.00 | 97 | 4251.1 |
| 20260904062826 | 77 | 214 | 1.0 | 1.0 | 0.00 | 0.00 | 0.00 | 96 | 4251.3 |
| 20260904061823 | 77 | 218 | 2.0 | 2.0 | 0.00 | 0.00 | 0.00 | 96 | 4251.0 |
| 20260904060821 | 77 | 221 | 1.0 | 1.0 | 0.00 | 0.00 | 0.00 | 96 | 4251.3 |
| 20260904055817 | 77 | 223 | 1.0 | 1.0 | 0.00 | 0.00 | 0.00 | 96 | 4251.4 |
| 20260904054814 | 78 | 219 | 1.0 | 1.0 | 0.00 | 0.00 | 0.00 | 96 | 4251.3 |
| 20260904053811 | 78 | 215 | 0.0 | 1.0 | 0.00 | 0.00 | 0.00 | 95 | 4251.6 |
| 20260904052807 | 78 | 211 | 1.0 | 1.0 | 0.00 | 0.00 | 0.00 | 95 | 4251.4 |
| 20260904051805 | 79 | 212 | 0.0 | 1.0 | 0.00 | 0.00 | 0.00 | 94 | 4251.4 |
| 20260904050801 | 79 | 212 | 1.0 | 1.0 | 0.00 | 0.00 | 0.00 | 94 | 4251.7 |
| 20260904045758 | 79 | 216 | 1.0 | 2.0 | 0.00 | 0.00 | 0.00 | 93 | 4251.6 |
| 20260904044753 | 79 | 226 | 1.0 | 1.0 | 0.00 | 0.00 | 0.00 | 92 | 4251.5 |
| 20260904043751 | 80 | 210 | 1.0 | 1.0 | 0.00 | 0.00 | 0.00 | 92 | 4251.3 |
| 20260904042749 | 80 | 220 | 0.0 | 0.0 | 0.00 | 0.00 | 0.00 | 91 | 4251.6 |
| 20260904041744 | 80 | 226 | 0.0 | 0.0 | 0.00 | 0.00 | 0.00 | 90 | 4251.4 |
| 20260904040742 | 81 | 209 | 0.0 | 1.0 | 0.00 | 0.00 | 0.00 | 90 | 4251.5 |
| 20260904035740 | 81 | 210 | 0.0 | 0.0 | 0.00 | 0.00 | 0.00 | 87 | 4251.5 |
| 20260904034739 | 81 | 215 | 0.0 | 0.0 | 0.00 | 0.00 | 0.00 | 88 | 4251.6 |
| 20260904033737 | 81 | 222 | 1.0 | 1.0 | 0.00 | 0.00 | 0.00 | 88 | 4251.6 |
| 20260904032735 | 82 | 188 | 0.0 | 0.0 | 0.00 | 0.00 | 0.00 | 88 | 4251.7 |
| 20260904031734 | 82 | 218 | 1.0 | 1.0 | 0.00 | 0.00 | 0.00 | 87 | 4251.8 |
| 20260904030731 | 82 | 228 | 1.0 | 1.0 | 0.00 | 0.00 | 0.00 | 87 | 4251.9 |
| 20260904025730 | 82 | 209 | 1.0 | 1.0 | 0.00 | 0.00 | 0.00 | 87 | 4251.8 |
| 20260904024726 | 83 | 205 | 0.0 | 0.0 | 0.00 | 0.00 | 0.00 | 84 | 4251.9 |
| 20260904023723 | 84 | 203 | 0.0 | 0.0 | 0.00 | 0.00 | 0.00 | 84 | 4251.8 |
| 20260904022723 | 84 | 216 | 0.0 | 1.0 | 0.00 | 0.00 | 0.00 | 83 | 4251.6 |
| 20260904021723 | 84 | 225 | 1.0 | 1.0 | 0.00 | 0.00 | 0.00 | 83 | 4251.5 |
| 20260904020719 | 85 | 224 | 0.0 | 0.0 | 0.00 | 0.00 | 0.00 | 81 | 4251.4 |
| 20260904015717 | 84 | 231 | 1.0 | 1.0 | 0.00 | 0.00 | 0.00 | 80 | 4251.4 |
| 20260904014717 | 85 | 209 | 0.0 | 0.0 | 0.00 | 0.00 | 0.00 | 83 | 4251.3 |
| 20260904013714 | 85 | 207 | 1.0 | 1.0 | 0.00 | 0.00 | 0.00 | 82 | 4251.0 |
| 20260904012711 | 85 | 170 | 0.0 | 0.0 | 0.00 | 0.00 | 0.00 | 83 | 4250.9 |
| 20260904011710 | 86 | 169 | 0.0 | 0.0 | 0.00 | 0.00 | 0.00 | 82 | 4251.0 |
| 20260904010706 | 86 | 202 | 0.0 | 0.0 | 0.00 | 0.00 | 0.00 | 82 | 4250.8 |
| 20260904005704 | 86 | 217 | 1.0 | 1.0 | 0.00 | 0.00 | 0.00 | 82 | 4250.7 |
| 20260904004700 | 86 | 237 | 2.0 | 2.0 | 0.00 | 0.00 | 0.00 | 82 | 4250.7 |
| 20260904003656 | 87 | 91 | 0.0 | 0.0 | 0.00 | 0.00 | 0.00 | 83 | 4250.6 |
| 20260904002654 | 88 | 91 | 0.0 | 0.0 | 0.00 | 0.00 | 0.00 | 81 | 4250.3 |
| 20260904001650 | 88 | 90 | 0.0 | 0.0 | 0.00 | 0.00 | 0.00 | 86 | 4250.5 |
| 20260904000650 | 89 | 89 | 0.0 | 0.0 | 0.00 | 0.00 | 0.00 | 77 | 4250.2 |
| 20260903235650 | 90 | 88 | 0.0 | 0.0 | 0.00 | 0.00 | 0.00 | 75 | 4250.4 |
| 20260903234647 | 91 | 88 | 0.0 | 0.0 | 0.00 | 0.00 | 0.00 | 70 | 4250.3 |
| 20260903233646 | 92 | 88 | 0.0 | 0.0 | 0.00 | 0.00 | 0.00 | 69 | 4250.3 |
| 20260903232641 | 92 | 88 | 0.0 | 0.0 | 0.00 | 0.00 | 0.00 | 68 | 4250.6 |
| 20260903231637 | 91 | 290 | 0.0 | 0.0 | 0.00 | 0.00 | 0.00 | 72 | 4250.4 |
| 20260903230632 | 91 | 351 | 2.0 | 2.0 | 0.00 | 0.00 | 0.00 | 78 | 4250.3 |
| 20260903225629 | 95 | 353 | 1.0 | 2.0 | 0.00 | 0.00 | 0.00 | 64 | 4250.3 |
| 20260903224626 | 97 | 60 | 0.0 | 1.0 | 0.00 | 0.00 | 0.00 | 56 | 4250.5 |
| 20260903223624 | 96 | 60 | 0.0 | 0.0 | 0.00 | 0.00 | 0.00 | 54 | 4250.1 |
| 20260903222623 | 95 | 359 | 0.0 | 0.0 | 0.00 | 0.00 | 0.00 | 58 | 4250.2 |
| 20260903221617 | 97 | 338 | 2.0 | 2.0 | 0.00 | 0.00 | 0.00 | 58 | 4250.1 |
| 20260903220614 | 96 | 356 | 1.0 | 1.0 | 0.00 | 0.00 | 0.00 | 59 | 4250.0 |
| 20260903215613 | 96 | 18 | 1.0 | 2.0 | 0.00 | 0.00 | 0.00 | 58 | 4249.9 |
| 20260903214613 | 96 | 16 | 1.0 | 2.0 | 0.00 | 0.00 | 0.00 | 61 | 4249.9 |
| 20260903213609 | 96 | 21 | 1.0 | 1.0 | 0.00 | 0.00 | 0.00 | 61 | 4250.2 |
| 20260903212606 | 95 | 349 | 1.0 | 1.0 | 0.00 | 0.00 | 0.00 | 61 | 4250.1 |
| 20260903211602 | 96 | 347 | 0.0 | 0.0 | 0.00 | 0.00 | 0.00 | 58 | 4250.1 |
| 20260903210600 | 95 | 347 | 2.0 | 2.0 | 0.00 | 0.00 | 0.00 | 67 | 4250.3 |
| 20260903205554 | 95 | 347 | 2.0 | 2.0 | 0.00 | 0.00 | 0.00 | 66 | 4250.4 |
| 20260903204551 | 95 | 26 | 1.0 | 1.0 | 0.00 | 0.00 | 0.00 | 65 | 4250.4 |
| 20260903203547 | 94 | 16 | 1.0 | 1.0 | 0.00 | 0.00 | 0.00 | 66 | 4250.5 |
| 20260903202543 | 97 | 347 | 2.0 | 2.0 | 0.00 | 0.00 | 0.00 | 64 | 4250.7 |
| 20260903201539 | 96 | 358 | 1.0 | 2.0 | 0.00 | 0.00 | 0.00 | 63 | 4250.7 |
| 20260903200533 | 95 | 350 | 2.0 | 2.0 | 0.00 | 0.00 | 0.00 | 65 | 4251.0 |
| 20260903195530 | 94 | 36 | 3.0 | 3.0 | 0.00 | 0.00 | 0.00 | 68 | 4251.1 |
| 20260903194527 | 97 | 18 | 4.0 | 5.0 | 0.00 | 0.00 | 0.00 | 65 | 4251.3 |
| 20260903193524 | 96 | 353 | 3.0 | 5.0 | 0.00 | 0.00 | 0.00 | 67 | 4251.2 |
| 20260903192522 | 96 | 88 | 1.0 | 2.0 | 0.00 | 0.00 | 0.00 | 62 | 4251.3 |
| 20260903191518 | 96 | 7 | 2.0 | 2.0 | 0.00 | 0.00 | 0.00 | 67 | 4251.7 |
| 20260903190518 | 97 | 347 | 3.0 | 3.0 | 0.00 | 0.00 | 0.00 | 65 | 4251.6 |
| 20260903185514 | 96 | 33 | 1.0 | 1.0 | 0.00 | 0.00 | 0.00 | 67 | 4251.7 |
| 20260903184511 | 97 | 17 | 3.0 | 3.0 | 0.00 | 0.00 | 0.00 | 59 | 4251.9 |
| 20260903183510 | 96 | 358 | 3.0 | 3.0 | 0.00 | 0.00 | 0.00 | 63 | 4251.7 |
| 20260903182509 | 96 | 335 | 3.0 | 5.0 | 0.00 | 0.00 | 0.00 | 65 | 4252.3 |
| 20260903181505 | 96 | 16 | 3.0 | 5.0 | 0.00 | 0.00 | 0.00 | 65 | 4252.1 |
| 20260903180500 | 95 | 22 | 5.0 | 5.0 | 0.00 | 0.00 | 0.00 | 65 | 4252.3 |
| 20260903175459 | 95 | 1 | 3.0 | 3.0 | 0.00 | 0.00 | 0.00 | 67 | 4252.6 |
| 20260903174459 | 95 | 15 | 3.0 | 3.0 | 0.00 | 0.00 | 0.00 | 68 | 4252.6 |
| 20260903173455 | 95 | 23 | 3.0 | 3.0 | 0.00 | 0.00 | 0.00 | 66 | 4252.7 |
| 20260903172451 | 95 | 357 | 3.0 | 3.0 | 0.00 | 0.00 | 0.00 | 68 | 4253.0 |
| 20260903171447 | 94 | 357 | 3.0 | 3.0 | 0.00 | 0.00 | 0.00 | 69 | 4253.0 |
| 20260903170442 | 94 | 355 | 3.0 | 3.0 | 0.00 | 0.00 | 0.00 | 68 | 4253.1 |
| 20260903165441 | 93 | 353 | 3.0 | 3.0 | 0.00 | 0.00 | 0.00 | 72 | 4253.3 |
| 20260903164437 | 93 | 359 | 2.0 | 2.0 | 0.00 | 0.00 | 0.00 | 72 | 4253.4 |
| 20260903163433 | 93 | 0 | 2.0 | 2.0 | 0.00 | 0.00 | 0.00 | 74 | 4253.6 |
| 20260903162431 | 92 | 359 | 2.0 | 2.0 | 0.00 | 0.00 | 0.00 | 75 | 4253.6 |
| 20260903161427 | 92 | 358 | 1.0 | 1.0 | 0.00 | 0.00 | 0.00 | 76 | 4254.0 |
| 20260903160422 | 91 | 5 | 2.0 | 2.0 | 0.00 | 0.00 | 0.00 | 75 | 4253.7 |
| 20260903155422 | 90 | 5 | 3.0 | 3.0 | 0.00 | 0.00 | 0.00 | 76 | 4253.8 |
| 20260903154420 | 90 | 0 | 3.0 | 3.0 | 0.00 | 0.00 | 0.00 | 74 | 4253.7 |
| 20260903153416 | 89 | 13 | 2.0 | 2.0 | 0.00 | 0.00 | 0.00 | 77 | 4254.1 |
| 20260903152414 | 89 | 3 | 2.0 | 2.0 | 0.00 | 0.00 | 0.00 | 79 | 4254.1 |
| 20260903151409 | 88 | 4 | 1.0 | 2.0 | 0.00 | 0.00 | 0.00 | 80 | 4253.8 |
| 20260903150404 | 87 | 10 | 3.0 | 3.0 | 0.00 | 0.00 | 0.00 | 82 | 4253.5 |
| 20260903145400 | 86 | 15 | 2.0 | 2.0 | 0.00 | 0.00 | 0.00 | 84 | 4253.9 |
| 20260903144400 | 86 | 9 | 2.0 | 2.0 | 0.00 | 0.00 | 0.00 | 84 | 4253.9 |
| 20260903143359 | 85 | 12 | 2.0 | 2.0 | 0.00 | 0.00 | 0.00 | 83 | 4253.8 |
| 20260903142354 | 84 | 14 | 0.0 | 0.0 | 0.00 | 0.00 | 0.00 | 84 | 4253.8 |
| 20260903141352 | 82 | 14 | 1.0 | 1.0 | 0.00 | 0.00 | 0.00 | 88 | 4253.9 |
| 20260903140348 | 82 | 25 | 0.0 | 1.0 | 0.00 | 0.00 | 0.00 | 90 | 4254.0 |
| 20260903135345 | 81 | 17 | 0.0 | 1.0 | 0.00 | 0.00 | 0.00 | 91 | 4253.9 |
| 20260903134345 | 80 | 28 | 1.0 | 1.0 | 0.00 | 0.00 | 0.00 | 94 | 4253.9 |
| 20260903133345 | 79 | 28 | 2.0 | 2.0 | 0.00 | 0.00 | 0.00 | 96 | 4254.1 |
| 20260903132341 | 79 | 353 | 0.0 | 1.0 | 0.00 | 0.00 | 0.00 | 95 | 4254.1 |
| 20260903131341 | 78 | 292 | 0.0 | 0.0 | 0.00 | 0.00 | 0.00 | 96 | 4254.2 |
| 20260903130340 | 77 | 237 | 0.0 | 0.0 | 0.00 | 0.00 | 0.00 | 96 | 4254.1 |
| 20260903125335 | 76 | 232 | 0.0 | 1.0 | 0.00 | 0.00 | 0.00 | 96 | 4254.0 |
| 20260903124335 | 75 | 230 | 1.0 | 1.0 | 0.00 | 0.00 | 0.00 | 98 | 4254.2 |